Time,TemperatureF,DewpointF,PressureIn,WindDirection,WindDirectionDegrees,WindSpeedMPH,WindSpeedGustMPH,Humidity,HourlyPrecipIn,Conditions,Clouds,dailyrainin,SoftwareType,DateUTC
2013-03-20 00:03:00,39.0,5.0,30.16,WNW,285,4.0,17.0,24,0.00,,,0.01,,2013-03-20 04:03:00,
2013-03-20 00:12:00,39.0,5.0,30.16,WNW,285,4.0,17.0,24,0.00,,,0.01,,2013-03-20 04:12:00,
2013-03-20 00:23:00,38.0,5.0,30.15,WNW,298,5.0,10.0,25,0.00,,,0.01,,2013-03-20 04:23:00,
2013-03-20 00:32:00,37.0,6.0,30.15,West,265,5.0,12.0,27,0.00,,,0.01,,2013-03-20 04:32:00,
2013-03-20 00:43:00,37.0,6.0,30.15,West,265,5.0,12.0,27,0.00,,,0.01,,2013-03-20 04:43:00,
2013-03-20 00:52:00,37.0,7.0,30.16,WSW,252,5.0,12.0,28,0.00,,,0.01,,2013-03-20 04:52:00,
2013-03-20 01:03:00,37.0,7.0,30.16,West,271,6.0,11.0,28,0.00,,,0.01,,2013-03-20 05:03:00,
2013-03-20 01:13:00,37.0,8.0,30.16,West,265,6.0,14.0,30,0.00,,,0.01,,2013-03-20 05:13:00,
2013-03-20 01:23:00,37.0,8.0,30.16,West,265,6.0,14.0,30,0.00,,,0.01,,2013-03-20 05:23:00,
2013-03-20 01:32:00,36.0,8.0,30.16,West,269,5.0,10.0,30,0.00,,,0.01,,2013-03-20 05:32:00,
2013-03-20 01:42:00,36.0,8.0,30.16,West,269,5.0,10.0,30,0.00,,,0.01,,2013-03-20 05:42:00,
2013-03-20 01:53:00,35.0,7.0,30.16,West,275,2.0,8.0,31,0.00,,,0.01,,2013-03-20 05:53:00,
2013-03-20 02:03:00,35.0,8.0,30.16,West,273,2.0,9.0,32,0.00,,,0.01,,2013-03-20 06:03:00,
2013-03-20 02:13:00,35.0,8.0,30.16,West,273,2.0,9.0,32,0.00,,,0.01,,2013-03-20 06:13:00,
2013-03-20 02:22:00,35.0,9.0,30.16,West,281,1.0,10.0,33,0.00,,,0.01,,2013-03-20 06:22:00,
2013-03-20 02:32:00,34.0,9.0,30.16,West,267,3.0,8.0,35,0.00,,,0.01,,2013-03-20 06:32:00,
2013-03-20 02:42:00,34.0,9.0,30.16,West,267,3.0,8.0,35,0.00,,,0.01,,2013-03-20 06:42:00,
2013-03-20 02:53:00,34.0,10.0,30.16,West,269,4.0,9.0,36,0.00,,,0.01,,2013-03-20 06:53:00,
2013-03-20 03:02:00,34.0,11.0,30.16,West,269,2.0,9.0,37,0.00,,,0.01,,2013-03-20 07:02:00,
2013-03-20 03:12:00,34.0,11.0,30.16,West,269,2.0,9.0,37,0.00,,,0.01,,2013-03-20 07:12:00,
2013-03-20 03:22:00,33.0,10.0,30.16,WNW,286,3.0,7.0,38,0.00,,,0.01,,2013-03-20 07:22:00,
2013-03-20 03:32:00,34.0,12.0,30.16,West,275,4.0,11.0,39,0.00,,,0.01,,2013-03-20 07:32:00,
2013-03-20 03:42:00,34.0,12.0,30.16,West,275,4.0,11.0,39,0.00,,,0.01,,2013-03-20 07:42:00,
2013-03-20 03:52:00,34.0,11.0,30.16,West,279,5.0,11.0,38,0.00,,,0.01,,2013-03-20 07:52:00,
2013-03-20 04:02:00,34.0,11.0,30.15,WNW,289,4.0,10.0,38,0.00,,,0.01,,2013-03-20 08:02:00,
2013-03-20 04:12:00,34.0,11.0,30.15,WNW,289,4.0,10.0,38,0.00,,,0.01,,2013-03-20 08:12:00,
2013-03-20 04:22:00,33.0,11.0,30.15,West,272,2.0,7.0,40,0.00,,,0.01,,2013-03-20 08:22:00,
2013-03-20 04:32:00,33.0,11.0,30.15,West,272,2.0,7.0,40,0.00,,,0.01,,2013-03-20 08:32:00,
2013-03-20 04:42:00,33.0,11.0,30.15,West,272,2.0,7.0,40,0.00,,,0.01,,2013-03-20 08:42:00,
2013-03-20 04:52:00,32.0,11.0,30.14,West,278,3.0,6.0,41,0.00,,,0.01,,2013-03-20 08:52:00,
2013-03-20 05:02:00,32.0,12.0,30.14,West,275,1.0,7.0,42,0.00,,,0.01,,2013-03-20 09:02:00,
2013-03-20 05:12:00,32.0,12.0,30.14,West,275,1.0,7.0,42,0.00,,,0.01,,2013-03-20 09:12:00,
2013-03-20 05:22:00,31.0,12.0,30.14,WNW,282,2.0,5.0,44,0.00,,,0.01,,2013-03-20 09:22:00,
2013-03-20 05:33:00,31.0,13.0,30.14,West,277,2.0,5.0,46,0.00,,,0.01,,2013-03-20 09:33:00,
2013-03-20 05:43:00,31.0,13.0,30.14,West,277,2.0,5.0,46,0.00,,,0.01,,2013-03-20 09:43:00,
2013-03-20 05:53:00,30.0,12.0,30.14,West,277,1.0,4.0,46,0.00,,,0.01,,2013-03-20 09:53:00,
2013-03-20 06:03:00,30.0,13.0,30.14,West,277,0.0,3.0,48,0.00,,,0.01,,2013-03-20 10:03:00,
2013-03-20 06:13:00,30.0,13.0,30.14,West,277,0.0,3.0,48,0.00,,,0.01,,2013-03-20 10:13:00,
2013-03-20 06:23:00,30.0,13.0,30.14,West,281,1.0,9.0,49,0.00,,,0.01,,2013-03-20 10:23:00,
2013-03-20 06:33:00,30.0,13.0,30.15,West,263,4.0,7.0,48,0.00,,,0.01,,2013-03-20 10:33:00,
2013-03-20 06:43:00,30.0,13.0,30.15,West,263,4.0,7.0,48,0.00,,,0.01,,2013-03-20 10:43:00,
2013-03-20 06:53:00,30.0,13.0,30.15,West,275,1.0,7.0,49,0.00,,,0.01,,2013-03-20 10:53:00,
2013-03-20 07:03:00,30.0,13.0,30.15,WSW,247,3.0,6.0,49,0.00,,,0.01,,2013-03-20 11:03:00,
2013-03-20 07:12:00,30.0,13.0,30.15,WSW,247,3.0,6.0,49,0.00,,,0.01,,2013-03-20 11:12:00,
2013-03-20 07:22:00,29.0,13.0,30.15,West,269,3.0,5.0,50,0.00,,,0.01,,2013-03-20 11:22:00,
2013-03-20 07:32:00,29.0,13.0,30.15,WNW,284,2.0,7.0,50,0.00,,,0.01,,2013-03-20 11:32:00,
2013-03-20 07:42:00,29.0,13.0,30.15,WNW,284,2.0,7.0,50,0.00,,,0.01,,2013-03-20 11:42:00,
2013-03-20 07:52:00,29.0,13.0,30.15,WNW,284,1.0,4.0,50,0.00,,,0.00,,2013-03-20 11:52:00,
2013-03-20 08:02:00,30.0,14.0,30.16,West,275,2.0,6.0,51,0.00,,,0.00,,2013-03-20 12:02:00,
2013-03-20 08:12:00,30.0,14.0,30.16,West,275,2.0,6.0,51,0.00,,,0.00,,2013-03-20 12:12:00,
2013-03-20 08:22:00,30.0,14.0,30.16,West,271,3.0,8.0,50,0.00,,,0.00,,2013-03-20 12:22:00,
2013-03-20 08:32:00,31.0,14.0,30.16,West,263,4.0,6.0,49,0.00,,,0.00,,2013-03-20 12:32:00,
2013-03-20 08:42:00,31.0,14.0,30.16,West,263,4.0,6.0,49,0.00,,,0.00,,2013-03-20 12:42:00,
2013-03-20 08:52:00,32.0,14.0,30.17,West,277,5.0,8.0,47,0.00,,,0.00,,2013-03-20 12:52:00,
2013-03-20 09:03:00,33.0,14.0,30.17,West,263,6.0,12.0,45,0.00,,,0.00,,2013-03-20 13:03:00,
2013-03-20 09:12:00,33.0,14.0,30.17,West,263,6.0,12.0,45,0.00,,,0.00,,2013-03-20 13:12:00,
2013-03-20 09:22:00,33.0,14.0,30.17,West,267,6.0,14.0,45,0.00,,,0.00,,2013-03-20 13:22:00,
2013-03-20 09:32:00,34.0,14.0,30.17,West,267,6.0,12.0,44,0.00,,,0.00,,2013-03-20 13:32:00,
2013-03-20 09:42:00,34.0,14.0,30.17,West,267,6.0,12.0,44,0.00,,,0.00,,2013-03-20 13:42:00,
2013-03-20 09:53:00,34.0,14.0,30.17,West,275,5.0,13.0,43,0.00,,,0.00,,2013-03-20 13:53:00,
2013-03-20 10:03:00,35.0,15.0,30.17,West,268,6.0,11.0,43,0.00,,,0.00,,2013-03-20 14:03:00,
2013-03-20 10:12:00,35.0,15.0,30.17,West,268,6.0,11.0,43,0.00,,,0.00,,2013-03-20 14:12:00,
2013-03-20 10:23:00,36.0,15.0,30.17,WSW,255,7.0,11.0,41,0.00,,,0.00,,2013-03-20 14:23:00,
2013-03-20 10:34:00,36.0,14.0,30.16,WSW,246,7.0,12.0,40,0.00,,,0.00,,2013-03-20 14:34:00,
2013-03-20 10:42:00,36.0,14.0,30.16,WSW,246,7.0,12.0,40,0.00,,,0.00,,2013-03-20 14:42:00,
2013-03-20 10:53:00,37.0,16.0,30.16,West,271,4.0,12.0,42,0.00,,,0.00,,2013-03-20 14:53:00,
2013-03-20 11:02:00,37.0,15.0,30.15,West,261,5.0,11.0,40,0.00,,,0.00,,2013-03-20 15:02:00,
2013-03-20 11:13:00,38.0,16.0,30.15,NW,304,5.0,9.0,41,0.00,,,0.00,,2013-03-20 15:13:00,
2013-03-20 11:22:00,38.0,16.0,30.15,NW,304,5.0,9.0,41,0.00,,,0.00,,2013-03-20 15:22:00,
2013-03-20 11:33:00,39.0,16.0,30.14,WSW,254,6.0,11.0,38,0.00,,,0.00,,2013-03-20 15:33:00,
2013-03-20 11:43:00,39.0,16.0,30.14,WSW,254,6.0,11.0,38,0.00,,,0.00,,2013-03-20 15:43:00,
2013-03-20 11:53:00,40.0,16.0,30.14,WSW,244,7.0,15.0,38,0.00,,,0.00,,2013-03-20 15:53:00,
2013-03-20 12:03:00,40.0,15.0,30.13,WNW,290,8.0,16.0,36,0.00,,,0.00,,2013-03-20 16:03:00,
2013-03-20 12:13:00,40.0,15.0,30.13,WNW,290,8.0,16.0,36,0.00,,,0.00,,2013-03-20 16:13:00,
2013-03-20 12:23:00,41.0,17.0,30.11,WNW,282,9.0,17.0,38,0.00,,,0.00,,2013-03-20 16:23:00,
2013-03-20 12:33:00,42.0,18.0,30.11,SW,215,8.0,16.0,38,0.00,,,0.00,,2013-03-20 16:33:00,
2013-03-20 12:43:00,42.0,18.0,30.11,SW,215,8.0,16.0,38,0.00,,,0.00,,2013-03-20 16:43:00,
2013-03-20 12:53:00,42.0,18.0,30.10,West,273,8.0,16.0,37,0.00,,,0.00,,2013-03-20 16:53:00,
2013-03-20 13:03:00,43.0,17.0,30.09,WSW,251,7.0,19.0,34,0.00,,,0.00,,2013-03-20 17:03:00,
2013-03-20 13:12:00,43.0,17.0,30.09,WSW,251,7.0,19.0,34,0.00,,,0.00,,2013-03-20 17:12:00,
2013-03-20 13:22:00,44.0,16.0,30.08,WNW,283,8.0,16.0,32,0.00,,,0.00,,2013-03-20 17:22:00,
2013-03-20 13:32:00,44.0,15.0,30.07,West,265,10.0,21.0,31,0.00,,,0.00,,2013-03-20 17:32:00,
2013-03-20 13:42:00,44.0,15.0,30.07,West,265,10.0,21.0,31,0.00,,,0.00,,2013-03-20 17:42:00,
2013-03-20 13:53:00,44.0,16.0,30.05,West,271,6.0,18.0,32,0.00,,,0.00,,2013-03-20 17:53:00,
2013-03-20 14:02:00,45.0,14.0,30.04,WNW,294,8.0,17.0,28,0.00,,,0.00,,2013-03-20 18:02:00,
2013-03-20 14:12:00,45.0,14.0,30.04,WNW,294,8.0,17.0,28,0.00,,,0.00,,2013-03-20 18:12:00,
2013-03-20 14:22:00,44.0,14.0,30.04,WNW,296,8.0,22.0,29,0.00,,,0.00,,2013-03-20 18:22:00,
2013-03-20 14:33:00,46.0,17.0,30.03,SW,234,12.0,22.0,31,0.00,,,0.00,,2013-03-20 18:33:00,
2013-03-20 14:43:00,46.0,17.0,30.03,SW,234,12.0,22.0,31,0.00,,,0.00,,2013-03-20 18:43:00,
2013-03-20 14:53:00,45.0,14.0,30.01,West,267,8.0,17.0,28,0.00,,,0.00,,2013-03-20 18:53:00,
2013-03-20 15:02:00,46.0,12.0,30.01,West,263,6.0,19.0,25,0.00,,,0.00,,2013-03-20 19:02:00,
2013-03-20 15:12:00,46.0,12.0,30.01,West,263,6.0,19.0,25,0.00,,,0.00,,2013-03-20 19:12:00,
2013-03-20 15:23:00,47.0,15.0,30.00,WNW,292,9.0,18.0,27,0.00,,,0.00,,2013-03-20 19:23:00,
2013-03-20 15:32:00,45.0,15.0,29.99,West,265,9.0,17.0,29,0.00,,,0.00,,2013-03-20 19:32:00,
2013-03-20 15:42:00,45.0,15.0,29.99,West,265,9.0,17.0,29,0.00,,,0.00,,2013-03-20 19:42:00,
2013-03-20 15:53:00,47.0,15.0,29.97,NNE,19,5.0,18.0,27,0.00,,,0.00,,2013-03-20 19:53:00,
2013-03-20 16:02:00,45.0,12.0,29.97,NW,309,6.0,17.0,26,0.00,,,0.00,,2013-03-20 20:02:00,
2013-03-20 16:13:00,45.0,12.0,29.97,NW,309,6.0,17.0,26,0.00,,,0.00,,2013-03-20 20:13:00,
2013-03-20 16:22:00,45.0,12.0,29.97,NW,309,6.0,17.0,26,0.00,,,0.00,,2013-03-20 20:22:00,
2013-03-20 16:32:00,47.0,12.0,29.95,West,261,13.0,25.0,24,0.00,,,0.00,,2013-03-20 20:32:00,
2013-03-20 16:42:00,47.0,12.0,29.95,West,261,13.0,25.0,24,0.00,,,0.00,,2013-03-20 20:42:00,
2013-03-20 16:53:00,47.0,12.0,29.95,WSW,258,8.0,17.0,24,0.00,,,0.00,,2013-03-20 20:53:00,
2013-03-20 17:02:00,47.0,13.0,29.93,WNW,282,9.0,17.0,25,0.00,,,0.00,,2013-03-20 21:02:00,
2013-03-20 17:12:00,47.0,13.0,29.93,WNW,282,9.0,17.0,25,0.00,,,0.00,,2013-03-20 21:12:00,
2013-03-20 17:22:00,47.0,10.0,29.93,NNW,330,7.0,20.0,22,0.00,,,0.00,,2013-03-20 21:22:00,
2013-03-20 17:33:00,47.0,10.0,29.93,NNW,330,7.0,20.0,22,0.00,,,0.00,,2013-03-20 21:33:00,
2013-03-20 17:42:00,47.0,10.0,29.93,NNW,330,7.0,20.0,22,0.00,,,0.00,,2013-03-20 21:42:00,
2013-03-20 17:53:00,46.0,10.0,29.92,WSW,256,7.0,12.0,23,0.00,,,0.00,,2013-03-20 21:53:00,
2013-03-20 18:03:00,47.0,11.0,29.91,West,260,7.0,14.0,23,0.00,,,0.00,,2013-03-20 22:03:00,
2013-03-20 18:13:00,47.0,11.0,29.91,West,260,7.0,14.0,23,0.00,,,0.00,,2013-03-20 22:13:00,
2013-03-20 18:23:00,46.0,10.0,29.91,West,277,7.0,17.0,23,0.00,,,0.00,,2013-03-20 22:23:00,
2013-03-20 18:33:00,45.0,9.0,29.91,West,276,8.0,16.0,23,0.00,,,0.00,,2013-03-20 22:33:00,
2013-03-20 18:42:00,45.0,9.0,29.91,West,276,8.0,16.0,23,0.00,,,0.00,,2013-03-20 22:42:00,
2013-03-20 18:53:00,45.0,10.0,29.91,West,265,8.0,14.0,24,0.00,,,0.00,,2013-03-20 22:53:00,
2013-03-20 19:02:00,44.0,10.0,29.91,WSW,245,7.0,17.0,25,0.00,,,0.00,,2013-03-20 23:02:00,
2013-03-20 19:12:00,44.0,10.0,29.91,WSW,245,7.0,17.0,25,0.00,,,0.00,,2013-03-20 23:12:00,
2013-03-20 19:23:00,44.0,11.0,29.91,West,260,3.0,13.0,26,0.00,,,0.00,,2013-03-20 23:23:00,
2013-03-20 19:32:00,43.0,11.0,29.91,West,264,6.0,11.0,27,0.00,,,0.00,,2013-03-20 23:32:00,
2013-03-20 19:42:00,43.0,11.0,29.91,West,264,6.0,11.0,27,0.00,,,0.00,,2013-03-20 23:42:00,
2013-03-20 19:53:00,43.0,10.0,29.91,West,275,7.0,12.0,26,0.00,,,0.00,,2013-03-20 23:53:00,
2013-03-20 20:03:00,43.0,11.0,29.91,West,271,7.0,11.0,27,0.00,,,0.00,,2013-03-21 00:03:00,
2013-03-20 20:13:00,43.0,11.0,29.91,West,271,7.0,11.0,27,0.00,,,0.00,,2013-03-21 00:13:00,
2013-03-20 20:23:00,43.0,12.0,29.91,West,275,5.0,17.0,28,0.00,,,0.00,,2013-03-21 00:23:00,
2013-03-20 20:33:00,43.0,11.0,29.91,West,268,8.0,21.0,27,0.00,,,0.00,,2013-03-21 00:33:00,
2013-03-20 20:42:00,43.0,11.0,29.91,West,268,8.0,21.0,27,0.00,,,0.00,,2013-03-21 00:42:00,
2013-03-20 20:53:00,42.0,11.0,29.91,West,267,5.0,10.0,28,0.00,,,0.00,,2013-03-21 00:53:00,
2013-03-20 21:02:00,42.0,12.0,29.91,West,263,3.0,8.0,29,0.00,,,0.00,,2013-03-21 01:02:00,
2013-03-20 21:12:00,42.0,12.0,29.91,West,263,3.0,8.0,29,0.00,,,0.00,,2013-03-21 01:12:00,
2013-03-20 21:22:00,41.0,13.0,29.91,West,263,3.0,7.0,31,0.00,,,0.00,,2013-03-21 01:22:00,
2013-03-20 21:33:00,40.0,12.0,29.91,West,263,2.0,6.0,31,0.00,,,0.00,,2013-03-21 01:33:00,
2013-03-20 21:42:00,40.0,12.0,29.91,West,263,2.0,6.0,31,0.00,,,0.00,,2013-03-21 01:42:00,
2013-03-20 21:53:00,39.0,12.0,29.92,West,263,2.0,6.0,33,0.00,,,0.00,,2013-03-21 01:53:00,
2013-03-20 22:02:00,40.0,15.0,29.91,West,279,4.0,10.0,35,0.00,,,0.00,,2013-03-21 02:02:00,
2013-03-20 22:13:00,40.0,15.0,29.91,West,279,4.0,10.0,35,0.00,,,0.00,,2013-03-21 02:13:00,
2013-03-20 22:22:00,40.0,16.0,29.91,NW,304,3.0,11.0,37,0.00,,,0.00,,2013-03-21 02:22:00,
2013-03-20 22:33:00,40.0,19.0,29.92,West,274,9.0,22.0,43,0.00,,,0.00,,2013-03-21 02:33:00,
2013-03-20 22:42:00,40.0,19.0,29.92,West,274,9.0,22.0,43,0.00,,,0.00,,2013-03-21 02:42:00,
2013-03-20 22:52:00,40.0,19.0,29.92,West,274,9.0,22.0,43,0.00,,,0.00,,2013-03-21 02:52:00,
2013-03-20 23:02:00,37.0,24.0,29.93,West,276,7.0,20.0,60,0.00,,,0.00,,2013-03-21 03:02:00,
2013-03-20 23:12:00,37.0,24.0,29.93,West,276,7.0,20.0,60,0.00,,,0.00,,2013-03-21 03:12:00,
2013-03-20 23:22:00,36.0,26.0,29.93,NW,315,8.0,20.0,67,0.00,,,0.00,,2013-03-21 03:22:00,
2013-03-20 23:33:00,35.0,27.0,29.93,NW,309,5.0,13.0,72,0.00,,,0.00,,2013-03-21 03:33:00,
2013-03-20 23:43:00,35.0,27.0,29.93,NW,309,5.0,13.0,72,0.00,,,0.00,,2013-03-21 03:43:00,
2013-03-20 23:53:00,34.0,28.0,29.94,West,280,5.0,10.0,77,0.00,,,0.00,,2013-03-21 03:53:00,